Tracking 30990 objects as of 8-Jul-2025
HD Live streaming from Space Station
objects crossing your sky now

SL-12 R/B(2)

Track SL-12 R/B(2) now!


NORAD ID: 28119
Int'l Code: 2003-053E
Perigee: 34,940.6 km
Apogee: 36,783.7 km
Inclination: 13.4 °
Period: 1,439.6 minutes
Semi major axis: 42233 km
RCS: 1.9952 m2 (large)
Launch date: November 24, 2003
Source: Commonwealth of Independent States (former USSR) (CIS)
Launch site: TYURATAM MISSILE AND SPACE COMPLEX (TTMTR)

Note: This is a ROCKET BODY
Your satellite tracking list
Your tracking list is empty




NASA's NSSDC Master Catalog

Two Line Element Set (TLE):
1 28119U 03053E   25189.07732376 -.00000063  00000-0  00000+0 0  9991
2 28119  13.3937  15.8654 0218215 294.5460  72.2793  1.00028280 81254
Source of the keplerian elements: AFSPC